• Processing (Info)

  • MPEC 2023-O98 : 2023 OV3

    The following Minor Planet Electronic Circular may be linked-to from your own Web pages, but must not otherwise be redistributed electronically.

    A form allowing access to any MPEC is at the bottom of this page.


    Read MPEC 2023-O97 Read MPEC 2023-O99


    M.P.E.C. 2023-O98                                 Issued 2023 July 27, 20:00 UT
    
         The Minor Planet Electronic Circulars contain information on unusual
             minor planets, routine data on comets and natural satellites,
             and occasional editorial announcements.  They are published
        on behalf of Division F of the International Astronomical Union by the
              Minor Planet Center, Smithsonian Astrophysical Observatory,
                              Cambridge, MA 02138, U.S.A.
    			  
                 Prepared using the Tamkin Foundation Computer Network
    
                                  MPC@CFA.HARVARD.EDU
                URL https://www.minorplanetcenter.net/    ISSN 1523-6714
    
                                    2023 OV3                                 
    
    
    Observations:
         K23O03V* C2023 07 23.10285301 33 19.387-63 31 26.22         18.98cVEO098M22
         K23O03V  C2023 07 23.10465801 33 20.642-63 31 27.48         19.36cVEO098M22
         K23O03V  C2023 07 23.10835901 33 22.898-63 31 25.36         19.16cVEO098M22
         K23O03V  C2023 07 23.13345901 33 37.982-63 31 25.28         19.51cVEO098M22
         K23O03V  V2023 07 23.38147401 36 14.86 -63 31 02.6                WEO098247
         K23O03V  v2023 07 23.3814741 289.1467   -30.5263    1710           EO098247
         K23O03V  V2023 07 23.38477601 36 16.93 -63 31 02.3                WEO098247
         K23O03V  v2023 07 23.3847761 289.1467   -30.5263    1710           EO098247
         K23O03V  V2023 07 23.38770901 36 18.73 -63 31 02.0                WEO098247
         K23O03V  v2023 07 23.3877091 289.1467   -30.5263    1710           EO098247
         K23O03V  V2023 07 24.24750401 45 38.00 -63 27 58.6                WEO098247
         K23O03V  v2023 07 24.2475041 289.1467   -30.5263    1710           EO098247
         K23O03V  V2023 07 24.25183701 45 40.62 -63 27 57.9                WEO098247
         K23O03V  v2023 07 24.2518371 289.1467   -30.5263    1710           EO098247
         K23O03V  V2023 07 24.25536901 45 43.00 -63 27 57.2                WEO098247
         K23O03V  v2023 07 24.2553691 289.1467   -30.5263    1710           EO098247
         K23O03V  C2023 07 25.11589 01 55 20.91 -63 22 38.8          19.0 GVEO098M28
         K23O03V  C2023 07 25.11747 01 55 21.96 -63 22 38.1          18.9 GVEO098M28
         K23O03V  C2023 07 25.11906 01 55 22.99 -63 22 37.3          19.0 GVEO098M28
         K23O03V  C2023 07 25.12065 01 55 24.05 -63 22 36.6          18.6 GVEO098M28
         K23O03V  V2023 07 25.28373701 57 17.91 -63 21 09.6                WEO098247
         K23O03V  v2023 07 25.2837371 289.1467   -30.5263    1710           EO098247
         K23O03V  V2023 07 25.29074401 57 22.72 -63 21 07.5                WEO098247
         K23O03V  v2023 07 25.2907441 289.1467   -30.5263    1710           EO098247
         K23O03V  V2023 07 25.29774001 57 27.56 -63 21 05.0                WEO098247
         K23O03V  v2023 07 25.2977401 289.1467   -30.5263    1710           EO098247
         K23O03V 1C2023 07 25.36319801 58 11.954-63 20 35.33         19.1 GVEO098W57
         K23O03V 1C2023 07 25.37207701 58 17.994-63 20 31.35         19.5 GVEO098W57
         K23O03V KB2023 07 27.18269 02 20 01.14 -62 57 14.8          19.5 VZEO098M49
         K23O03V KB2023 07 27.18625 02 20 03.65 -62 57 11.1          19.7 VZEO098M49
         K23O03V KB2023 07 27.18980 02 20 06.23 -62 57 07.4          19.8 VZEO098M49
    
    Observer details:
    247 Roving Observer.  Observers A. Schnabel, D. Ruhela.  Measurer S. Deen.
        0.43-m reflector + CCD.
    M22 ATLAS South Africa, Sutherland.  Observers L. Denneau, R. Siverd, J.
        Tonry, H. Weiland.  Measurers L. Denneau, N. Erasmus, A. Fitzsimmons, A.
        Lawrence, J. Robinson, R. Siverd, J. Tonry, H. Weiland.  0.5-m Reflector +
        CCD.
    M28 Lesedi Telescope-SAAO Observatory, Sutherland.  Observers N. Erasmus, S.
        Potter, C. van Gend, S. Chandra.  Measurers N. Erasmus, T. Ngwane.  1.0-m
        f/8 Reflector + CCD.
    M49 IAS Remote Observatory, Hakos.  Observers D. Husar, M. Junius.  Measurer
        D. Husar.  0.25-m f/4.6 reflector + CMO.
    W57 ESA TBT La Silla Observatory.  Observers R. Kresken, L. Conversi, F.
        Ocana, M. Micheli.  Measurers F. Ocana, M. Micheli.  0.56-m f/2.52
        astrograph prime-focus corrector + 4K CCD.
    
    Orbital elements:
    2023 OV3                                                 Earth MOID = 0.1430 AU
    Epoch 2023 Sept. 13.0 TT = JDT 2460200.5                Veres                   
    M 357.76794              (2000.0)            P               Q                  
    n   0.26705268     Peri.   42.01308     +0.86893880     -0.48737839             
    a   2.3882040      Node   346.36498     +0.29766944     +0.65359263             
    e   0.6942040      Incl.   21.41387     +0.39539633     +0.57903280             
    P   3.69           H   19.49          G   0.15           U   9                  
    Residuals in seconds of arc
    230723 M22  0.5-  0.2-    230724 247  0.8-  0.9-    230725 247  0.3-  1.1-
    230723 M22  0.5+  1.5-    230724 247  0.2-  0.8-    230725 W57  0.8+  0.2+
    230723 M22  0.6+  0.6+    230725 M28  0.3-  0.7+    230725 W57  1.2+  0.1-
    230723 M22  0.6-  0.1-    230725 M28  0.4-  0.7+    230727 M49  0.2+  0.5-
    230723 247  0.4+  0.6-    230725 M28  0.6-  0.8+    230727 M49  0.2-  0.4-
    230723 247  0.6+  0.6-    230725 M28  0.5-  0.9+    230727 M49  0.1-  0.3-
    230723 247  0.6+  0.5-    230725 247  1.3-  0.1+
    230724 247  0.6+  0.9-    230725 247  0.9-  0.7-
    
    Ephemeris:
    2023 OV3                 a,e,i = 2.39, 0.69, 21                  q = 0.7303
    Date    TT    R. A. (2000) Decl.     Delta      r    Elong.  Phase     V
    2023 06 27    22 52 32.7 -58 08 55   0.6490  1.4626   121.3    36.4    20.9
    ...
    2023 07 12    00 03 25.2 -61 55 32   0.4629  1.3035   118.7    43.2    20.1
    ...
    2023 07 20    01 03 10.5 -63 22 45   0.3723  1.2177   114.3    49.5    19.6
    ...
    2023 07 26    02 05 37.3 -63 13 52   0.3087  1.1534   108.9    56.4    19.3
    2023 07 27    02 17 44.1 -63 00 00   0.2986  1.1428   107.8    57.8    19.2
    2023 07 28    02 30 18.8 -62 41 06   0.2886  1.1321   106.6    59.3    19.2
    ...
    2023 08 03    03 53 04.1 -58 18 40   0.2328  1.0688    97.1    70.4    18.9
    ...
    2023 08 11    05 41 50.1 -41 44 26   0.1776  0.9868    76.3    93.6    19.0
    ...
    2023 08 26    07 52 33.5 +10 35 18   0.2089  0.8492    35.4   136.4    22.1
    
    M. P. C. Staff               (C) Copyright 2023 MPC           M.P.E.C. 2023-O98
    


    Read MPEC 2023-O97 Read MPEC 2023-O99


    MPEC number:

    Enter an MPEC number in one of the following forms:

    • 1997-B01 (the full form)
    • J97B01 (the packed version of the full form)
    • B01 (the abbreviated form)